Time,TemperatureF,DewpointF,PressureIn,WindDirection,WindDirectionDegrees,WindSpeedMPH,WindSpeedGustMPH,Humidity,HourlyPrecipIn,Conditions,Clouds,dailyrainin,SoftwareType,DateUTC
2013-06-29 00:01:00,67.0,60.7,29.47,NW,315,0.7,1.6,80,0.00,,,0.00,WUHU216HW,2013-06-29 04:01:00,
2013-06-29 00:06:00,66.8,60.5,29.47,NW,315,0.4,1.1,80,0.00,,,0.00,WUHU216HW,2013-06-29 04:06:00,
2013-06-29 00:11:00,66.8,60.5,29.47,NW,315,0.0,1.1,80,0.00,,,0.00,WUHU216HW,2013-06-29 04:11:00,
2013-06-29 00:16:00,66.8,60.5,29.47,WNW,293,0.9,0.9,80,0.00,,,0.00,WUHU216HW,2013-06-29 04:16:00,
2013-06-29 00:21:00,66.8,60.5,29.47,WNW,293,0.7,1.1,80,0.00,,,0.00,WUHU216HW,2013-06-29 04:21:00,
2013-06-29 00:26:00,66.6,60.3,29.47,West,270,0.4,1.8,80,0.00,,,0.00,WUHU216HW,2013-06-29 04:26:00,
2013-06-29 00:31:00,66.6,60.3,29.48,NW,315,0.9,1.8,80,0.00,,,0.00,WUHU216HW,2013-06-29 04:31:00,
2013-06-29 00:36:00,66.6,60.7,29.48,NW,315,0.4,1.3,81,0.00,,,0.00,WUHU216HW,2013-06-29 04:36:00,
2013-06-29 00:41:00,66.6,60.7,29.48,WNW,293,1.1,1.6,81,0.00,,,0.00,WUHU216HW,2013-06-29 04:41:00,
2013-06-29 00:46:00,66.6,60.7,29.47,WNW,293,2.2,2.2,81,0.00,,,0.00,WUHU216HW,2013-06-29 04:46:00,
2013-06-29 00:51:00,66.6,60.9,29.47,WNW,293,0.4,2.2,82,0.00,,,0.00,WUHU216HW,2013-06-29 04:51:00,
2013-06-29 00:56:00,66.4,60.5,29.47,WNW,293,0.0,1.8,81,0.00,,,0.00,WUHU216HW,2013-06-29 04:56:00,
2013-06-29 01:01:00,66.4,60.5,29.47,NW,315,0.4,0.9,81,0.00,,,0.00,WUHU216HW,2013-06-29 05:01:00,
2013-06-29 01:06:00,66.4,60.8,29.46,NW,315,0.9,0.9,82,0.00,,,0.00,WUHU216HW,2013-06-29 05:06:00,
2013-06-29 01:11:00,66.4,60.5,29.47,NW,315,0.0,0.9,81,0.00,,,0.00,WUHU216HW,2013-06-29 05:11:00,
2013-06-29 01:16:00,66.4,60.8,29.46,NW,315,0.4,0.9,82,0.00,,,0.00,WUHU216HW,2013-06-29 05:16:00,
2013-06-29 01:21:00,66.2,60.6,29.46,NNW,338,0.0,1.3,82,0.00,,,0.00,WUHU216HW,2013-06-29 05:21:00,
2013-06-29 01:26:00,66.2,60.3,29.46,NW,315,0.9,1.3,81,0.00,,,0.00,WUHU216HW,2013-06-29 05:26:00,
2013-06-29 01:31:00,66.2,60.6,29.46,NW,315,0.0,0.9,82,0.00,,,0.00,WUHU216HW,2013-06-29 05:31:00,
2013-06-29 01:36:00,66.2,60.6,29.47,NW,315,0.0,0.7,82,0.00,,,0.00,WUHU216HW,2013-06-29 05:36:00,
2013-06-29 01:41:00,66.1,60.4,29.47,NW,315,0.0,0.0,82,0.00,,,0.00,WUHU216HW,2013-06-29 05:41:00,
2013-06-29 01:46:00,66.1,60.4,29.47,NW,315,0.2,0.4,82,0.00,,,0.00,WUHU216HW,2013-06-29 05:46:00,
2013-06-29 01:51:00,66.1,60.4,29.47,NW,315,0.0,0.4,82,0.00,,,0.00,WUHU216HW,2013-06-29 05:51:00,
2013-06-29 01:56:00,65.9,60.2,29.46,NW,315,0.4,0.7,82,0.00,,,0.00,WUHU216HW,2013-06-29 05:56:00,
2013-06-29 02:01:00,65.9,60.2,29.46,NW,315,1.1,1.1,82,0.00,,,0.00,WUHU216HW,2013-06-29 06:01:00,
2013-06-29 02:06:00,65.9,60.2,29.46,WNW,293,1.1,1.1,82,0.00,,,0.00,WUHU216HW,2013-06-29 06:06:00,
2013-06-29 02:11:00,65.7,60.0,29.46,WNW,293,0.9,1.6,82,0.00,,,0.00,WUHU216HW,2013-06-29 06:11:00,
2013-06-29 02:16:00,65.7,60.0,29.46,NW,315,2.0,2.0,82,0.00,,,0.00,WUHU216HW,2013-06-29 06:16:00,
2013-06-29 02:21:00,65.5,59.9,29.46,NW,315,0.4,2.0,82,0.00,,,0.00,WUHU216HW,2013-06-29 06:21:00,
2013-06-29 02:26:00,65.5,59.9,29.46,NW,315,1.8,2.5,82,0.00,,,0.00,WUHU216HW,2013-06-29 06:26:00,
2013-06-29 02:31:00,65.3,59.7,29.46,West,270,0.0,2.5,82,0.00,,,0.00,WUHU216HW,2013-06-29 06:31:00,
2013-06-29 02:36:00,65.2,59.5,29.46,North,0,0.0,1.3,82,0.00,,,0.00,WUHU216HW,2013-06-29 06:36:00,
2013-06-29 02:41:00,65.2,59.5,29.47,NW,315,0.4,1.1,82,0.00,,,0.00,WUHU216HW,2013-06-29 06:41:00,
2013-06-29 02:46:00,65.2,59.5,29.47,North,0,0.0,1.8,82,0.00,,,0.00,WUHU216HW,2013-06-29 06:46:00,
2013-06-29 02:51:00,65.2,59.5,29.48,NW,315,1.1,1.8,82,0.00,,,0.00,WUHU216HW,2013-06-29 06:51:00,
2013-06-29 02:56:00,65.2,59.5,29.48,NNW,338,0.4,1.1,82,0.00,,,0.00,WUHU216HW,2013-06-29 06:56:00,
2013-06-29 03:01:00,65.2,59.5,29.47,NW,315,0.4,1.3,82,0.00,,,0.00,WUHU216HW,2013-06-29 07:01:00,
2013-06-29 03:06:00,65.2,59.5,29.47,NW,315,0.4,1.6,82,0.00,,,0.00,WUHU216HW,2013-06-29 07:06:00,
2013-06-29 03:11:00,65.2,59.5,29.47,WNW,293,0.9,1.6,82,0.00,,,0.00,WUHU216HW,2013-06-29 07:11:00,
2013-06-29 03:16:00,65.0,59.3,29.48,NW,315,1.3,1.8,82,0.00,,,0.00,WUHU216HW,2013-06-29 07:16:00,
2013-06-29 03:21:00,65.0,59.3,29.48,WNW,293,2.5,2.9,82,0.00,,,0.00,WUHU216HW,2013-06-29 07:21:00,
2013-06-29 03:26:00,65.2,59.9,29.48,WNW,293,1.8,2.9,83,0.00,,,0.00,WUHU216HW,2013-06-29 07:26:00,
2013-06-29 03:31:00,65.0,59.7,29.47,WNW,293,0.4,2.9,83,0.00,,,0.00,WUHU216HW,2013-06-29 07:31:00,
2013-06-29 03:36:00,65.2,59.9,29.48,NW,315,0.7,2.7,83,0.00,,,0.00,WUHU216HW,2013-06-29 07:36:00,
2013-06-29 03:41:00,65.0,59.7,29.48,NNW,338,2.0,2.0,83,0.00,,,0.00,WUHU216HW,2013-06-29 07:41:00,
2013-06-29 03:46:00,65.0,59.7,29.48,NW,315,1.8,2.0,83,0.00,,,0.00,WUHU216HW,2013-06-29 07:46:00,
2013-06-29 03:51:00,65.0,59.7,29.48,WNW,293,2.0,2.7,83,0.00,,,0.00,WUHU216HW,2013-06-29 07:51:00,
2013-06-29 03:56:00,65.0,59.7,29.48,WNW,293,0.4,2.7,83,0.00,,,0.00,WUHU216HW,2013-06-29 07:56:00,
2013-06-29 04:01:00,65.0,59.7,29.48,West,270,1.1,2.5,83,0.00,,,0.00,WUHU216HW,2013-06-29 08:01:00,
2013-06-29 04:06:00,65.0,60.0,29.48,WNW,293,4.5,4.7,84,0.00,,,0.00,WUHU216HW,2013-06-29 08:06:00,
2013-06-29 04:11:00,64.8,59.9,29.47,West,270,3.6,5.4,84,0.00,,,0.00,WUHU216HW,2013-06-29 08:11:00,
2013-06-29 04:16:00,64.6,59.3,29.47,WNW,293,5.4,5.4,83,0.00,,,0.00,WUHU216HW,2013-06-29 08:16:00,
2013-06-29 04:21:00,64.6,59.3,29.47,West,270,3.6,6.0,83,0.00,,,0.00,WUHU216HW,2013-06-29 08:21:00,
2013-06-29 04:26:00,64.4,59.1,29.48,WNW,293,2.9,6.0,83,0.00,,,0.00,WUHU216HW,2013-06-29 08:26:00,
2013-06-29 04:31:00,64.4,59.1,29.48,WNW,293,1.3,3.6,83,0.00,,,0.00,WUHU216HW,2013-06-29 08:31:00,
2013-06-29 04:36:00,64.4,59.1,29.48,WNW,293,2.9,3.6,83,0.00,,,0.00,WUHU216HW,2013-06-29 08:36:00,
2013-06-29 04:41:00,64.4,59.1,29.48,NW,315,1.1,3.6,83,0.00,,,0.00,WUHU216HW,2013-06-29 08:41:00,
2013-06-29 04:46:00,64.4,59.1,29.49,NNW,338,0.4,3.4,83,0.00,,,0.00,WUHU216HW,2013-06-29 08:46:00,
2013-06-29 04:51:00,64.4,59.1,29.48,WNW,293,2.2,2.2,83,0.00,,,0.00,WUHU216HW,2013-06-29 08:51:00,
2013-06-29 04:56:00,64.4,59.1,29.48,WNW,293,3.4,3.4,83,0.00,,,0.00,WUHU216HW,2013-06-29 08:56:00,
2013-06-29 05:01:00,64.4,59.1,29.48,WNW,293,2.2,4.0,83,0.00,,,0.00,WUHU216HW,2013-06-29 09:01:00,
2013-06-29 05:06:00,64.4,59.1,29.49,West,270,2.5,4.0,83,0.00,,,0.00,WUHU216HW,2013-06-29 09:06:00,
2013-06-29 05:11:00,64.4,59.1,29.49,WNW,293,4.5,4.5,83,0.00,,,0.00,WUHU216HW,2013-06-29 09:11:00,
2013-06-29 05:16:00,64.4,59.1,29.49,WNW,293,4.7,4.7,83,0.00,,,0.00,WUHU216HW,2013-06-29 09:16:00,
2013-06-29 05:21:00,64.3,59.0,29.49,WNW,293,3.6,4.7,83,0.00,,,0.00,WUHU216HW,2013-06-29 09:21:00,
2013-06-29 05:26:00,64.3,59.0,29.49,WNW,293,4.7,4.7,83,0.00,,,0.00,WUHU216HW,2013-06-29 09:26:00,
2013-06-29 05:31:00,64.3,59.0,29.49,West,270,3.4,4.7,83,0.00,,,0.00,WUHU216HW,2013-06-29 09:31:00,
2013-06-29 05:36:00,64.3,59.0,29.50,WNW,293,2.5,4.7,83,0.00,,,0.00,WUHU216HW,2013-06-29 09:36:00,
2013-06-29 05:41:00,64.3,59.0,29.50,WNW,293,3.6,3.6,83,0.00,,,0.00,WUHU216HW,2013-06-29 09:41:00,
2013-06-29 05:46:00,64.3,59.0,29.51,WNW,293,2.7,4.5,83,0.00,,,0.00,WUHU216HW,2013-06-29 09:46:00,
2013-06-29 05:51:00,64.1,59.1,29.51,West,270,2.2,4.5,84,0.00,,,0.00,WUHU216HW,2013-06-29 09:51:00,
2013-06-29 05:56:00,64.1,58.8,29.51,WNW,293,1.8,2.9,83,0.00,,,0.00,WUHU216HW,2013-06-29 09:56:00,
2013-06-29 06:01:00,64.1,59.1,29.51,WNW,293,0.7,2.9,84,0.00,,,0.00,WUHU216HW,2013-06-29 10:01:00,
2013-06-29 06:06:00,64.3,59.0,29.51,WNW,293,0.0,1.1,83,0.00,,,0.00,WUHU216HW,2013-06-29 10:06:00,
2013-06-29 06:11:00,64.3,59.0,29.51,NW,315,0.7,0.9,83,0.00,,,0.00,WUHU216HW,2013-06-29 10:11:00,
2013-06-29 06:16:00,64.3,59.0,29.51,WNW,293,4.0,4.9,83,0.00,,,0.00,WUHU216HW,2013-06-29 10:16:00,
2013-06-29 06:21:00,64.3,59.0,29.52,WNW,293,4.0,4.9,83,0.00,,,0.00,WUHU216HW,2013-06-29 10:21:00,
2013-06-29 06:26:00,64.3,59.0,29.52,WNW,293,3.4,4.0,83,0.00,,,0.00,WUHU216HW,2013-06-29 10:26:00,
2013-06-29 06:31:00,64.3,59.0,29.52,WNW,293,2.5,4.0,83,0.00,,,0.00,WUHU216HW,2013-06-29 10:31:00,
2013-06-29 06:36:00,64.3,59.0,29.52,WNW,293,3.4,3.6,83,0.00,,,0.00,WUHU216HW,2013-06-29 10:36:00,
2013-06-29 06:41:00,64.4,59.1,29.52,WNW,293,3.4,4.7,83,0.00,,,0.00,WUHU216HW,2013-06-29 10:41:00,
2013-06-29 06:46:00,64.3,59.0,29.53,WNW,293,3.4,4.7,83,0.00,,,0.00,WUHU216HW,2013-06-29 10:46:00,
2013-06-29 06:51:00,64.4,59.1,29.52,WNW,293,3.4,3.8,83,0.00,,,0.00,WUHU216HW,2013-06-29 10:51:00,
2013-06-29 06:56:00,64.4,59.1,29.53,WNW,293,2.5,3.4,83,0.00,,,0.00,WUHU216HW,2013-06-29 10:56:00,
2013-06-29 07:01:00,64.4,59.1,29.52,WNW,293,1.8,3.4,83,0.00,,,0.00,WUHU216HW,2013-06-29 11:01:00,
2013-06-29 07:06:00,64.6,59.3,29.52,West,270,1.1,3.1,83,0.00,,,0.00,WUHU216HW,2013-06-29 11:06:00,
2013-06-29 07:11:00,64.4,59.1,29.52,WNW,293,3.4,3.4,83,0.00,,,0.00,WUHU216HW,2013-06-29 11:11:00,
2013-06-29 07:16:00,64.6,59.3,29.52,WNW,293,2.9,3.8,83,0.00,,,0.00,WUHU216HW,2013-06-29 11:16:00,
2013-06-29 07:21:00,64.8,59.9,29.52,WNW,293,2.5,4.0,84,0.00,,,0.00,WUHU216HW,2013-06-29 11:21:00,
2013-06-29 07:26:00,64.8,59.5,29.52,WNW,293,1.1,4.0,83,0.00,,,0.00,WUHU216HW,2013-06-29 11:26:00,
2013-06-29 07:31:00,65.2,59.9,29.52,WNW,293,0.0,2.5,83,0.00,,,0.00,WUHU216HW,2013-06-29 11:31:00,
2013-06-29 07:36:00,65.3,60.0,29.52,WNW,293,0.0,1.1,83,0.00,,,0.00,WUHU216HW,2013-06-29 11:36:00,
2013-06-29 07:41:00,65.5,60.2,29.52,NW,315,0.0,0.0,83,0.00,,,0.00,WUHU216HW,2013-06-29 11:41:00,
2013-06-29 07:46:00,65.7,60.0,29.52,NW,315,0.0,0.0,82,0.00,,,0.00,WUHU216HW,2013-06-29 11:46:00,
2013-06-29 07:51:00,65.7,60.0,29.53,NW,315,0.0,0.0,82,0.00,,,0.00,WUHU216HW,2013-06-29 11:51:00,
2013-06-29 07:56:00,65.9,60.2,29.53,NW,315,0.0,0.0,82,0.00,,,0.00,WUHU216HW,2013-06-29 11:56:00,
2013-06-29 08:01:00,65.9,60.2,29.53,NW,315,0.0,0.0,82,0.00,,,0.00,WUHU216HW,2013-06-29 12:01:00,
2013-06-29 08:06:00,65.9,60.2,29.53,NW,315,0.0,0.0,82,0.00,,,0.00,WUHU216HW,2013-06-29 12:06:00,
2013-06-29 08:11:00,65.9,60.2,29.53,NW,315,0.0,0.0,82,0.00,,,0.00,WUHU216HW,2013-06-29 12:11:00,
2013-06-29 08:16:00,66.1,60.4,29.53,NNW,338,0.7,0.7,82,0.00,,,0.00,WUHU216HW,2013-06-29 12:16:00,
2013-06-29 08:21:00,66.1,60.4,29.53,NW,315,0.0,0.9,82,0.00,,,0.00,WUHU216HW,2013-06-29 12:21:00,
2013-06-29 08:26:00,66.2,60.6,29.53,NW,315,0.0,0.9,82,0.00,,,0.00,WUHU216HW,2013-06-29 12:26:00,
2013-06-29 08:31:00,66.6,60.9,29.53,NW,315,0.0,0.4,82,0.00,,,0.00,WUHU216HW,2013-06-29 12:31:00,
2013-06-29 08:36:00,66.8,61.1,29.53,ESE,113,0.0,0.4,82,0.00,,,0.00,WUHU216HW,2013-06-29 12:36:00,
2013-06-29 08:41:00,67.0,61.0,29.53,ENE,68,0.4,1.1,81,0.00,,,0.00,WUHU216HW,2013-06-29 12:41:00,
2013-06-29 08:46:00,67.3,61.4,29.53,ENE,68,0.4,1.1,81,0.00,,,0.00,WUHU216HW,2013-06-29 12:46:00,
2013-06-29 08:51:00,67.5,61.6,29.53,ENE,68,1.3,1.3,81,0.00,,,0.00,WUHU216HW,2013-06-29 12:51:00,
2013-06-29 08:56:00,67.5,61.6,29.53,ENE,68,1.3,1.3,81,0.00,,,0.00,WUHU216HW,2013-06-29 12:56:00,
2013-06-29 09:01:00,68.2,61.9,29.52,SSE,158,1.1,1.3,80,0.00,,,0.00,WUHU216HW,2013-06-29 13:01:00,
2013-06-29 09:06:00,68.6,61.8,29.53,SW,225,0.4,1.3,79,0.00,,,0.00,WUHU216HW,2013-06-29 13:06:00,
2013-06-29 09:11:00,68.8,62.0,29.53,SE,135,0.4,1.8,79,0.00,,,0.00,WUHU216HW,2013-06-29 13:11:00,
2013-06-29 09:16:00,69.1,62.4,29.53,ESE,113,0.0,1.8,79,0.00,,,0.00,WUHU216HW,2013-06-29 13:16:00,
2013-06-29 09:21:00,69.1,62.4,29.53,ESE,113,0.4,1.1,79,0.00,,,0.00,WUHU216HW,2013-06-29 13:21:00,
2013-06-29 09:26:00,69.1,61.9,29.52,ESE,113,1.1,1.1,78,0.00,,,0.00,WUHU216HW,2013-06-29 13:26:00,
2013-06-29 09:31:00,69.5,62.3,29.52,ESE,113,1.3,1.3,78,0.00,,,0.00,WUHU216HW,2013-06-29 13:31:00,
2013-06-29 09:36:00,69.7,62.5,29.52,ESE,113,1.3,1.8,78,0.00,,,0.00,WUHU216HW,2013-06-29 13:36:00,
2013-06-29 09:41:00,69.8,62.7,29.52,ESE,113,1.1,1.8,78,0.00,,,0.00,WUHU216HW,2013-06-29 13:41:00,
2013-06-29 09:46:00,70.0,62.8,29.52,SE,135,1.3,1.8,78,0.00,,,0.00,WUHU216HW,2013-06-29 13:46:00,
2013-06-29 09:51:00,70.2,63.0,29.52,SSE,158,1.3,1.8,78,0.00,,,0.00,WUHU216HW,2013-06-29 13:51:00,
2013-06-29 09:56:00,70.2,63.0,29.52,WSW,248,0.4,1.8,78,0.00,,,0.00,WUHU216HW,2013-06-29 13:56:00,
2013-06-29 10:01:00,70.2,62.6,29.52,West,270,1.1,1.8,77,0.00,,,0.00,WUHU216HW,2013-06-29 14:01:00,
2013-06-29 10:06:00,70.0,62.4,29.52,West,270,1.3,1.8,77,0.00,,,0.00,WUHU216HW,2013-06-29 14:06:00,
2013-06-29 10:11:00,69.8,62.2,29.52,WNW,293,2.5,2.5,77,0.00,,,0.00,WUHU216HW,2013-06-29 14:11:00,
2013-06-29 10:16:00,69.5,61.9,29.52,WNW,293,1.6,2.5,77,0.00,,,0.00,WUHU216HW,2013-06-29 14:16:00,
2013-06-29 10:21:00,69.5,62.3,29.51,WNW,293,0.9,2.0,78,0.00,,,0.00,WUHU216HW,2013-06-29 14:21:00,
2013-06-29 10:26:00,69.5,62.3,29.52,West,270,0.9,1.6,78,0.00,,,0.00,WUHU216HW,2013-06-29 14:26:00,
2013-06-29 10:31:00,69.7,62.1,29.51,WNW,293,0.7,2.0,77,0.00,,,0.00,WUHU216HW,2013-06-29 14:31:00,
2013-06-29 10:36:00,70.2,63.0,29.51,WSW,248,0.7,2.0,78,0.00,,,0.00,WUHU216HW,2013-06-29 14:36:00,
2013-06-29 10:41:00,70.4,62.7,29.51,West,270,1.6,1.6,77,0.00,,,0.00,WUHU216HW,2013-06-29 14:41:00,
2013-06-29 10:46:00,70.9,63.3,29.51,NW,315,0.4,1.6,77,0.00,,,0.00,WUHU216HW,2013-06-29 14:46:00,
2013-06-29 10:51:00,71.1,63.5,29.51,WSW,248,0.0,1.6,77,0.00,,,0.00,WUHU216HW,2013-06-29 14:51:00,
2013-06-29 10:56:00,71.6,64.5,29.51,SE,135,1.8,3.6,78,0.00,,,0.00,WUHU216HW,2013-06-29 14:56:00,
2013-06-29 11:01:00,72.7,65.9,29.51,ENE,68,1.1,3.8,79,0.00,,,0.00,WUHU216HW,2013-06-29 15:01:00,
2013-06-29 11:06:00,73.8,66.6,29.50,SSE,158,4.3,4.3,78,0.00,,,0.00,WUHU216HW,2013-06-29 15:06:00,
2013-06-29 11:11:00,74.5,66.9,29.51,SSE,158,3.4,4.3,77,0.00,,,0.00,WUHU216HW,2013-06-29 15:11:00,
2013-06-29 11:16:00,75.2,67.6,29.51,SE,135,0.2,4.3,77,0.00,,,0.00,WUHU216HW,2013-06-29 15:16:00,
2013-06-29 11:21:00,76.0,67.1,29.50,WSW,248,1.8,4.0,74,0.00,,,0.00,WUHU216HW,2013-06-29 15:21:00,
2013-06-29 11:26:00,74.9,65.6,29.50,WSW,248,1.6,4.0,73,0.00,,,0.00,WUHU216HW,2013-06-29 15:26:00,
2013-06-29 11:31:00,73.8,65.4,29.50,SSW,203,1.8,3.4,75,0.00,,,0.00,WUHU216HW,2013-06-29 15:31:00,
2013-06-29 11:36:00,73.4,65.1,29.50,WSW,248,2.5,3.4,75,0.00,,,0.00,WUHU216HW,2013-06-29 15:36:00,
2013-06-29 11:41:00,73.1,65.1,29.50,North,0,0.7,2.5,76,0.00,,,0.00,WUHU216HW,2013-06-29 15:41:00,
2013-06-29 11:46:00,72.9,64.9,29.50,West,270,1.6,2.2,76,0.00,,,0.00,WUHU216HW,2013-06-29 15:46:00,
2013-06-29 11:51:00,72.7,65.1,29.50,NNW,338,0.4,1.8,77,0.00,,,0.00,WUHU216HW,2013-06-29 15:51:00,
2013-06-29 11:56:00,72.7,65.1,29.50,SSW,203,0.2,1.8,77,0.00,,,0.00,WUHU216HW,2013-06-29 15:56:00,
2013-06-29 12:01:00,72.7,65.1,29.50,ENE,68,0.9,1.8,77,0.00,,,0.00,WUHU216HW,2013-06-29 16:01:00,
2013-06-29 12:06:00,72.7,65.5,29.50,ESE,113,3.1,3.6,78,0.00,,,0.00,WUHU216HW,2013-06-29 16:06:00,
2013-06-29 12:11:00,73.1,65.9,29.50,SSW,203,1.6,3.6,78,0.00,,,0.00,WUHU216HW,2013-06-29 16:11:00,
2013-06-29 12:16:00,73.3,66.1,29.50,SE,135,1.8,3.4,78,0.00,,,0.00,WUHU216HW,2013-06-29 16:16:00,
2013-06-29 12:21:00,73.4,66.3,29.50,SSE,158,0.4,3.4,78,0.00,,,0.00,WUHU216HW,2013-06-29 16:21:00,
2013-06-29 12:26:00,73.8,66.6,29.50,West,270,0.0,2.7,78,0.00,,,0.00,WUHU216HW,2013-06-29 16:26:00,
2013-06-29 12:31:00,74.3,67.1,29.50,WNW,293,1.6,1.8,78,0.00,,,0.00,WUHU216HW,2013-06-29 16:31:00,
2013-06-29 12:36:00,74.9,67.2,29.50,ESE,113,2.9,3.1,77,0.00,,,0.00,WUHU216HW,2013-06-29 16:36:00,
2013-06-29 12:41:00,75.6,67.5,29.50,ENE,68,2.2,3.1,76,0.00,,,0.00,WUHU216HW,2013-06-29 16:41:00,
2013-06-29 12:46:00,76.0,67.9,29.49,SSE,158,1.1,6.5,76,0.00,,,0.00,WUHU216HW,2013-06-29 16:46:00,
2013-06-29 12:51:00,76.9,68.3,29.49,SE,135,5.1,6.5,75,0.00,,,0.00,WUHU216HW,2013-06-29 16:51:00,
2013-06-29 12:56:00,77.9,69.3,29.49,SE,135,5.6,6.5,75,0.00,,,0.00,WUHU216HW,2013-06-29 16:56:00,
2013-06-29 13:01:00,78.1,68.8,29.49,ESE,113,4.7,5.8,73,0.00,,,0.00,WUHU216HW,2013-06-29 17:01:00,
2013-06-29 13:06:00,77.9,68.6,29.49,ESE,113,6.7,6.7,73,0.00,,,0.00,WUHU216HW,2013-06-29 17:06:00,
2013-06-29 13:11:00,78.1,68.8,29.49,SE,135,8.7,8.7,73,0.00,,,0.00,WUHU216HW,2013-06-29 17:11:00,
2013-06-29 13:16:00,78.5,68.7,29.49,SSE,158,4.7,8.7,72,0.00,,,0.00,WUHU216HW,2013-06-29 17:16:00,
2013-06-29 13:21:00,78.8,68.6,29.48,ESE,113,6.9,7.8,71,0.00,,,0.00,WUHU216HW,2013-06-29 17:21:00,
2013-06-29 13:26:00,78.8,68.6,29.48,ESE,113,5.6,7.4,71,0.00,,,0.00,WUHU216HW,2013-06-29 17:26:00,
2013-06-29 13:31:00,79.0,68.8,29.48,ESE,113,7.6,7.6,71,0.00,,,0.00,WUHU216HW,2013-06-29 17:31:00,
2013-06-29 13:37:00,79.4,69.1,29.48,SE,135,5.4,7.6,71,0.00,,,0.00,WUHU216HW,2013-06-29 17:37:00,
2013-06-29 13:42:00,79.7,69.5,29.48,SE,135,6.3,6.9,71,0.00,,,0.00,WUHU216HW,2013-06-29 17:42:00,
2013-06-29 13:47:00,80.3,69.7,29.47,ESE,113,6.3,7.4,70,0.00,,,0.00,WUHU216HW,2013-06-29 17:47:00,
2013-06-29 13:52:00,80.6,69.1,29.47,SE,135,8.9,10.5,68,0.00,,,0.00,WUHU216HW,2013-06-29 17:52:00,
2013-06-29 13:57:00,81.0,69.5,29.47,ESE,113,7.8,10.5,68,0.00,,,0.00,WUHU216HW,2013-06-29 17:57:00,
2013-06-29 14:02:00,81.0,69.5,29.47,ESE,113,7.8,9.6,68,0.00,,,0.00,WUHU216HW,2013-06-29 18:02:00,
2013-06-29 14:07:00,81.2,69.6,29.47,ESE,113,6.3,11.4,68,0.00,,,0.00,WUHU216HW,2013-06-29 18:07:00,
2013-06-29 14:12:00,81.4,68.9,29.47,ESE,113,7.8,11.4,66,0.00,,,0.00,WUHU216HW,2013-06-29 18:12:00,
2013-06-29 14:16:00,81.5,69.0,29.47,SE,135,7.6,9.6,66,0.00,,,0.00,WUHU216HW,2013-06-29 18:16:00,
2013-06-29 14:21:00,81.7,69.2,29.47,ESE,113,8.5,8.5,66,0.00,,,0.00,WUHU216HW,2013-06-29 18:21:00,
2013-06-29 14:26:00,81.9,69.4,29.48,SE,135,7.6,10.3,66,0.00,,,0.00,WUHU216HW,2013-06-29 18:26:00,
2013-06-29 14:31:00,81.5,68.6,29.48,SSE,158,6.7,10.3,65,0.00,,,0.00,WUHU216HW,2013-06-29 18:31:00,
2013-06-29 14:37:00,81.5,68.6,29.48,SSE,158,6.7,7.6,65,0.00,,,0.00,WUHU216HW,2013-06-29 18:37:00,
2013-06-29 14:59:00,78.8,67.3,29.49,SSE,158,4.7,4.7,68,0.06,,,0.00,WUHU216HW,2013-06-29 18:59:00,
2013-06-29 15:04:00,77.0,66.6,29.50,SSW,203,1.1,4.7,70,0.09,,,0.10,WUHU216HW,2013-06-29 19:04:00,
2013-06-29 15:09:00,76.0,65.9,29.49,WSW,248,1.8,4.0,71,0.10,,,0.10,WUHU216HW,2013-06-29 19:09:00,
2013-06-29 15:14:00,75.2,66.0,29.49,SW,225,0.7,2.5,73,0.10,,,0.10,WUHU216HW,2013-06-29 19:14:00,
2013-06-29 15:19:00,75.2,66.8,29.49,SW,225,1.1,2.0,75,0.10,,,0.10,WUHU216HW,2013-06-29 19:19:00,
2013-06-29 15:24:00,75.6,67.5,29.50,SW,225,1.8,2.0,76,0.10,,,0.10,WUHU216HW,2013-06-29 19:24:00,
2013-06-29 15:29:00,75.4,67.3,29.50,ESE,113,2.0,2.0,76,0.10,,,0.10,WUHU216HW,2013-06-29 19:29:00,
2013-06-29 15:34:00,75.8,68.0,29.50,SE,135,4.7,9.6,77,0.10,,,0.10,WUHU216HW,2013-06-29 19:34:00,
2013-06-29 15:39:00,76.5,68.4,29.50,SW,225,1.8,9.6,76,0.10,,,0.10,WUHU216HW,2013-06-29 19:39:00,
2013-06-29 15:44:00,76.7,68.1,29.50,ESE,113,7.4,7.4,75,0.10,,,0.10,WUHU216HW,2013-06-29 19:44:00,
2013-06-29 15:49:00,76.7,68.1,29.50,SE,135,3.1,7.4,75,0.10,,,0.10,WUHU216HW,2013-06-29 19:49:00,
2013-06-29 15:54:00,76.5,67.6,29.50,WSW,248,1.8,7.2,74,0.08,,,0.10,WUHU216HW,2013-06-29 19:54:00,
2013-06-29 15:59:00,76.3,67.8,29.50,SW,225,0.4,3.4,75,0.04,,,0.10,WUHU216HW,2013-06-29 19:59:00,
2013-06-29 16:04:00,76.7,68.1,29.50,WNW,293,1.1,2.0,75,0.00,,,0.10,WUHU216HW,2013-06-29 20:04:00,
2013-06-29 16:09:00,77.0,68.5,29.50,South,180,1.1,1.1,75,0.00,,,0.10,WUHU216HW,2013-06-29 20:09:00,
2013-06-29 16:14:00,77.4,68.9,29.50,SSE,158,3.1,3.6,75,0.00,,,0.10,WUHU216HW,2013-06-29 20:14:00,
2013-06-29 16:19:00,78.1,69.5,29.51,SSW,203,0.4,3.6,75,0.00,,,0.10,WUHU216HW,2013-06-29 20:19:00,
2013-06-29 16:24:00,78.1,69.5,29.51,SE,135,2.7,3.1,75,0.00,,,0.10,WUHU216HW,2013-06-29 20:24:00,
2013-06-29 16:29:00,78.5,69.5,29.51,ESE,113,1.8,2.7,74,0.00,,,0.10,WUHU216HW,2013-06-29 20:29:00,
2013-06-29 16:34:00,78.7,69.7,29.51,ESE,113,2.7,3.1,74,0.00,,,0.10,WUHU216HW,2013-06-29 20:34:00,
2013-06-29 16:39:00,78.7,69.2,29.51,SE,135,1.1,3.6,73,0.00,,,0.10,WUHU216HW,2013-06-29 20:39:00,
2013-06-29 16:44:00,78.7,69.7,29.51,East,90,1.8,3.6,74,0.00,,,0.10,WUHU216HW,2013-06-29 20:44:00,
2013-06-29 16:49:00,78.5,69.5,29.51,SE,135,0.4,1.8,74,0.00,,,0.10,WUHU216HW,2013-06-29 20:49:00,
2013-06-29 16:54:00,78.7,70.0,29.51,East,90,0.7,1.8,75,0.00,,,0.10,WUHU216HW,2013-06-29 20:54:00,
2013-06-29 16:59:00,79.0,70.4,29.51,ESE,113,1.8,1.8,75,0.00,,,0.10,WUHU216HW,2013-06-29 20:59:00,
2013-06-29 17:04:00,79.4,70.4,29.51,SE,135,0.4,1.8,74,0.00,,,0.10,WUHU216HW,2013-06-29 21:04:00,
2013-06-29 17:09:00,79.7,70.8,29.51,ENE,68,0.0,1.8,74,0.00,,,0.10,WUHU216HW,2013-06-29 21:09:00,
2013-06-29 17:14:00,80.1,70.3,29.51,NNE,23,0.0,1.8,72,0.00,,,0.10,WUHU216HW,2013-06-29 21:14:00,
2013-06-29 17:19:00,80.5,70.2,29.51,NNE,23,0.0,0.9,71,0.00,,,0.10,WUHU216HW,2013-06-29 21:19:00,
2013-06-29 17:24:00,80.6,70.4,29.51,NW,315,0.4,0.9,71,0.00,,,0.10,WUHU216HW,2013-06-29 21:24:00,
2013-06-29 17:29:00,80.3,69.2,29.52,NNW,338,1.1,1.8,69,0.00,,,0.10,WUHU216HW,2013-06-29 21:29:00,
2013-06-29 17:34:00,79.6,68.9,29.52,East,90,2.5,2.5,70,0.00,,,0.10,WUHU216HW,2013-06-29 21:34:00,
2013-06-29 17:39:00,79.0,69.2,29.52,ESE,113,2.7,3.8,72,0.00,,,0.10,WUHU216HW,2013-06-29 21:39:00,
2013-06-29 17:44:00,79.2,69.8,29.52,SE,135,3.4,4.3,73,0.00,,,0.10,WUHU216HW,2013-06-29 21:44:00,
2013-06-29 17:49:00,79.2,69.8,29.51,East,90,3.4,4.3,73,0.00,,,0.10,WUHU216HW,2013-06-29 21:49:00,
2013-06-29 17:54:00,79.2,69.8,29.52,ESE,113,2.2,4.0,73,0.00,,,0.10,WUHU216HW,2013-06-29 21:54:00,
2013-06-29 17:59:00,79.2,69.8,29.53,SSE,158,1.1,3.1,73,0.00,,,0.10,WUHU216HW,2013-06-29 21:59:00,
2013-06-29 18:04:00,78.8,69.0,29.53,WSW,248,0.4,1.8,72,0.00,,,0.10,WUHU216HW,2013-06-29 22:04:00,
2013-06-29 18:09:00,78.1,68.3,29.53,WNW,293,2.7,2.7,72,0.00,,,0.10,WUHU216HW,2013-06-29 22:09:00,
2013-06-29 18:14:00,76.7,67.0,29.53,WNW,293,3.4,5.4,72,0.00,,,0.10,WUHU216HW,2013-06-29 22:14:00,
2013-06-29 18:19:00,75.6,66.7,29.53,NW,315,1.3,5.4,74,0.00,,,0.10,WUHU216HW,2013-06-29 22:19:00,
2013-06-29 18:24:00,75.4,67.0,29.53,West,270,0.4,2.5,75,0.00,,,0.10,WUHU216HW,2013-06-29 22:24:00,
2013-06-29 18:29:00,75.2,66.8,29.54,West,270,2.9,2.9,75,0.00,,,0.10,WUHU216HW,2013-06-29 22:29:00,
2013-06-29 18:34:00,75.2,66.8,29.54,West,270,2.9,2.9,75,0.00,,,0.10,WUHU216HW,2013-06-29 22:34:00,
2013-06-29 18:57:00,73.4,65.4,29.55,WNW,293,3.1,3.1,76,0.00,,,0.10,WUHU216HW,2013-06-29 22:57:00,
2013-06-29 19:02:00,73.1,65.1,29.56,WSW,248,1.1,3.4,76,0.00,,,0.10,WUHU216HW,2013-06-29 23:02:00,
2013-06-29 19:07:00,73.1,65.1,29.56,WNW,293,2.7,3.4,76,0.00,,,0.10,WUHU216HW,2013-06-29 23:07:00,
2013-06-29 19:12:00,72.9,64.9,29.56,NW,315,0.9,2.7,76,0.00,,,0.10,WUHU216HW,2013-06-29 23:12:00,
2013-06-29 19:17:00,72.7,64.7,29.56,WNW,293,0.9,1.8,76,0.00,,,0.10,WUHU216HW,2013-06-29 23:17:00,
2013-06-29 19:22:00,72.5,64.5,29.56,WNW,293,0.7,1.8,76,0.00,,,0.10,WUHU216HW,2013-06-29 23:22:00,
2013-06-29 19:27:00,72.4,64.4,29.56,WNW,293,1.1,1.1,76,0.00,,,0.10,WUHU216HW,2013-06-29 23:27:00,
2013-06-29 19:32:00,72.4,64.4,29.56,WNW,293,1.1,1.1,76,0.00,,,0.10,WUHU216HW,2013-06-29 23:32:00,
2013-06-29 19:52:00,72.0,64.4,29.58,NNE,23,0.4,0.4,77,0.00,,,0.10,WUHU216HW,2013-06-29 23:52:00,
2013-06-29 19:57:00,71.8,64.2,29.58,ENE,68,0.2,0.9,77,0.00,,,0.10,WUHU216HW,2013-06-29 23:57:00,
2013-06-29 20:02:00,71.6,64.5,29.58,NNE,23,0.9,1.3,78,0.00,,,0.10,WUHU216HW,2013-06-30 00:02:00,
2013-06-29 20:07:00,71.6,64.5,29.59,ENE,68,1.1,1.3,78,0.00,,,0.10,WUHU216HW,2013-06-30 00:07:00,
2013-06-29 20:12:00,72.7,65.9,29.59,NE,45,0.0,1.1,79,0.00,,,0.10,WUHU216HW,2013-06-30 00:12:00,
2013-06-29 20:17:00,73.1,65.9,29.59,NE,45,0.4,1.8,78,0.00,,,0.10,WUHU216HW,2013-06-30 00:17:00,
2013-06-29 20:22:00,72.7,65.5,29.59,NNE,23,0.4,1.8,78,0.00,,,0.10,WUHU216HW,2013-06-30 00:22:00,
2013-06-29 20:27:00,72.2,64.5,29.60,ESE,113,0.4,1.8,77,0.00,,,0.10,WUHU216HW,2013-06-30 00:27:00,
2013-06-29 20:32:00,71.6,64.5,29.60,ESE,113,0.2,1.8,78,0.00,,,0.10,WUHU216HW,2013-06-30 00:32:00,
2013-06-29 20:37:00,71.3,64.1,29.60,East,90,0.9,1.1,78,0.00,,,0.10,WUHU216HW,2013-06-30 00:37:00,
2013-06-29 20:42:00,71.1,63.9,29.60,NE,45,1.1,1.1,78,0.00,,,0.10,WUHU216HW,2013-06-30 00:42:00,
2013-06-29 20:47:00,70.9,64.1,29.60,East,90,0.9,1.3,79,0.00,,,0.10,WUHU216HW,2013-06-30 00:47:00,
2013-06-29 20:52:00,70.6,64.1,29.60,East,90,0.7,1.3,80,0.00,,,0.10,WUHU216HW,2013-06-30 00:52:00,
2013-06-29 20:57:00,70.2,63.7,29.60,South,180,0.2,0.7,80,0.00,,,0.10,WUHU216HW,2013-06-30 00:57:00,
2013-06-29 21:02:00,70.0,63.5,29.61,SSW,203,0.0,0.4,80,0.00,,,0.10,WUHU216HW,2013-06-30 01:02:00,
2013-06-29 21:07:00,69.8,63.4,29.61,East,90,0.0,0.4,80,0.00,,,0.10,WUHU216HW,2013-06-30 01:07:00,
2013-06-29 21:12:00,69.7,63.6,29.61,ESE,113,0.0,0.2,81,0.00,,,0.10,WUHU216HW,2013-06-30 01:12:00,
2013-06-29 21:17:00,69.5,63.4,29.61,ESE,113,0.0,0.0,81,0.00,,,0.10,WUHU216HW,2013-06-30 01:17:00,
2013-06-29 21:22:00,69.3,63.2,29.61,West,270,0.0,0.0,81,0.00,,,0.10,WUHU216HW,2013-06-30 01:22:00,
2013-06-29 21:27:00,69.3,63.5,29.62,SE,135,0.0,0.0,82,0.00,,,0.10,WUHU216HW,2013-06-30 01:27:00,
2013-06-29 21:32:00,69.1,63.4,29.62,SE,135,0.4,1.1,82,0.00,,,0.10,WUHU216HW,2013-06-30 01:32:00,
2013-06-29 21:37:00,69.1,63.4,29.62,SW,225,0.4,1.1,82,0.00,,,0.10,WUHU216HW,2013-06-30 01:37:00,
2013-06-29 21:42:00,69.1,63.4,29.63,SW,225,0.0,0.7,82,0.00,,,0.10,WUHU216HW,2013-06-30 01:42:00,
2013-06-29 21:47:00,68.9,63.5,29.63,WSW,248,0.4,0.7,83,0.00,,,0.10,WUHU216HW,2013-06-30 01:47:00,
2013-06-29 21:52:00,68.9,63.9,29.63,West,270,0.4,0.4,84,0.00,,,0.10,WUHU216HW,2013-06-30 01:52:00,
2013-06-29 21:57:00,68.8,63.7,29.63,West,270,0.4,1.1,84,0.00,,,0.10,WUHU216HW,2013-06-30 01:57:00,
2013-06-29 22:02:00,68.6,63.9,29.63,West,270,0.2,1.1,85,0.00,,,0.10,WUHU216HW,2013-06-30 02:02:00,
2013-06-29 22:07:00,68.6,63.9,29.63,West,270,0.2,1.1,85,0.00,,,0.10,WUHU216HW,2013-06-30 02:07:00,
2013-06-29 22:12:00,68.6,63.5,29.63,West,270,0.0,0.9,84,0.00,,,0.10,WUHU216HW,2013-06-30 02:12:00,
2013-06-29 22:17:00,68.6,63.9,29.64,West,270,0.4,1.1,85,0.00,,,0.10,WUHU216HW,2013-06-30 02:17:00,
2013-06-29 22:22:00,68.4,63.7,29.64,West,270,1.3,1.3,85,0.00,,,0.10,WUHU216HW,2013-06-30 02:22:00,
2013-06-29 22:27:00,68.4,64.0,29.63,WNW,293,2.0,2.0,86,0.00,,,0.10,WUHU216HW,2013-06-30 02:27:00,
2013-06-29 22:32:00,68.4,63.7,29.63,WNW,293,1.8,2.0,85,0.00,,,0.10,WUHU216HW,2013-06-30 02:32:00,
2013-06-29 22:37:00,68.4,64.0,29.63,West,270,1.3,1.8,86,0.00,,,0.10,WUHU216HW,2013-06-30 02:37:00,
2013-06-29 22:42:00,68.4,63.7,29.64,West,270,1.1,2.7,85,0.00,,,0.10,WUHU216HW,2013-06-30 02:42:00,
2013-06-29 22:47:00,68.2,63.9,29.64,West,270,1.6,2.7,86,0.00,,,0.10,WUHU216HW,2013-06-30 02:47:00,
2013-06-29 22:52:00,68.2,63.6,29.64,WNW,293,2.0,2.5,85,0.00,,,0.10,WUHU216HW,2013-06-30 02:52:00,
2013-06-29 22:57:00,68.0,63.4,29.64,WNW,293,1.1,2.5,85,0.00,,,0.10,WUHU216HW,2013-06-30 02:57:00,
2013-06-29 23:02:00,68.0,63.7,29.64,WNW,293,2.0,2.0,86,0.00,,,0.10,WUHU216HW,2013-06-30 03:02:00,
2013-06-29 23:07:00,68.0,63.4,29.64,WNW,293,0.4,2.0,85,0.00,,,0.10,WUHU216HW,2013-06-30 03:07:00,
2013-06-29 23:12:00,68.0,63.4,29.64,NW,315,0.4,1.8,85,0.00,,,0.10,WUHU216HW,2013-06-30 03:12:00,
2013-06-29 23:17:00,68.0,63.4,29.64,NW,315,0.4,1.1,85,0.00,,,0.10,WUHU216HW,2013-06-30 03:17:00,
2013-06-29 23:22:00,68.0,63.4,29.64,WNW,293,1.1,1.3,85,0.00,,,0.10,WUHU216HW,2013-06-30 03:22:00,
2013-06-29 23:27:00,67.9,63.2,29.64,WNW,293,1.1,1.3,85,0.00,,,0.10,WUHU216HW,2013-06-30 03:27:00,
2013-06-29 23:32:00,67.9,63.2,29.64,NW,315,0.9,1.1,85,0.00,,,0.10,WUHU216HW,2013-06-30 03:32:00,
2013-06-29 23:37:00,67.7,63.0,29.64,WNW,293,1.3,1.3,85,0.00,,,0.10,WUHU216HW,2013-06-30 03:37:00,
2013-06-29 23:42:00,67.7,63.0,29.64,WNW,293,0.4,1.3,85,0.00,,,0.10,WUHU216HW,2013-06-30 03:42:00,
2013-06-29 23:47:00,67.7,63.0,29.64,WNW,293,0.0,0.9,85,0.00,,,0.10,WUHU216HW,2013-06-30 03:47:00,
2013-06-29 23:52:00,67.9,63.2,29.64,WNW,293,0.0,0.2,85,0.00,,,0.10,WUHU216HW,2013-06-30 03:52:00,
2013-06-29 23:57:00,68.0,63.4,29.64,West,270,0.0,0.2,85,0.00,,,0.10,WUHU216HW,2013-06-30 03:57:00,